CW5619 Weather Reports


time (UTC)temp
C
wind
direction
speed
KPH
gust
KPH
rain 1hr
cm
rain 24hr
cm
rain mn
cm
humidity
%
barometer
mb
20260906083403 27 43 0.0 1.6 0.00 0.00 0.00 45 1012.7
20260906082903 27 43 0.0 1.6 0.00 0.00 0.00 45 1012.7
20260906082404 27 43 0.0 3.2 0.00 0.00 0.00 45 1012.6
20260906081903 27 43 0.0 3.2 0.00 0.00 0.00 44 1012.7
20260906081404 27 54 0.0 1.6 0.00 0.00 0.00 44 1012.8
20260906080903 27 57 0.0 1.6 0.00 0.00 0.00 43 1012.8
20260906080403 27 57 0.0 0.0 0.00 0.00 0.00 43 1012.9
20260906075903 27 57 0.0 0.0 0.00 0.00 0.00 43 1012.9
20260906075404 27 57 0.0 0.0 0.00 0.00 0.00 43 1012.9
20260906074903 28 57 0.0 0.0 0.00 0.00 0.00 42 1013.0
20260906074404 28 57 0.0 0.0 0.00 0.00 0.00 43 1013.0
20260906073903 28 57 0.0 0.0 0.00 0.00 0.00 42 1013.0
20260906073403 28 57 0.0 1.6 0.00 0.00 0.00 42 1013.0
20260906072403 28 57 0.0 3.2 0.00 0.00 0.00 41 1013.1
20260906071903 28 38 0.0 3.2 0.00 0.00 0.00 41 1013.1
20260906071404 28 25 0.0 3.2 0.00 0.00 0.00 41 1013.2
20260906070903 28 25 0.0 4.8 0.00 0.00 0.00 41 1013.1
20260906065403 28 18 0.0 3.2 0.00 0.00 0.00 40 1013.2
20260906064904 29 36 0.0 4.8 0.00 0.00 0.00 40 1013.2
20260906064404 29 33 0.0 4.8 0.00 0.00 0.00 40 1013.2
20260906063903 29 52 1.6 4.8 0.00 0.00 0.00 41 1013.1
20260906063403 28 64 3.2 4.8 0.00 0.00 0.00 41 1013.1
20260906062403 28 26 1.6 4.8 0.00 0.00 0.00 44 1013.1
20260906061904 28 32 0.0 3.2 0.00 0.00 0.00 46 1013.1
20260906061404 28 247 0.0 0.0 0.00 0.00 0.00 46 1013.3
20260906060903 28 247 0.0 0.0 0.00 0.00 0.00 46 1013.2
20260906060404 28 247 0.0 0.0 0.00 0.00 0.00 47 1013.3
20260906055903 28 247 0.0 1.6 0.00 0.00 0.00 47 1013.3
20260906055403 28 247 0.0 1.6 0.00 0.00 0.00 46 1013.3
20260906054903 28 247 0.0 1.6 0.00 0.00 0.00 46 1013.4
20260906054403 29 247 0.0 0.0 0.00 0.00 0.00 45 1013.4
20260906053903 29 247 0.0 0.0 0.00 0.00 0.00 45 1013.4
20260906053403 29 247 0.0 1.6 0.00 0.00 0.00 44 1013.4
20260906052903 29 247 0.0 4.8 0.00 0.00 0.00 43 1013.4
20260906052403 29 248 1.6 4.8 0.00 0.00 0.00 44 1013.5
20260906051903 29 291 1.6 3.2 0.00 0.00 0.00 44 1013.5
20260906051403 29 33 0.0 1.6 0.00 0.00 0.00 45 1013.5
20260906050903 29 33 0.0 3.2 0.00 0.00 0.00 45 1013.5
20260906050403 29 33 0.0 4.8 0.00 0.00 0.00 45 1013.5
20260906045903 29 35 1.6 4.8 0.00 0.00 0.00 45 1013.5
20260906045403 30 72 1.6 3.2 0.00 0.00 0.00 44 1013.5
20260906044903 30 38 0.0 3.2 0.00 0.00 0.00 44 1013.4
20260906044403 30 38 0.0 3.2 0.00 0.00 0.00 44 1013.4
20260906043403 30 32 1.6 8.0 0.00 0.00 0.00 43 1013.3
20260906042903 30 24 1.6 8.0 0.00 0.00 0.00 43 1013.3
20260906042403 30 36 0.0 8.0 0.00 0.00 0.00 42 1013.3
20260906041903 30 36 1.6 4.8 0.00 0.00 0.00 42 1013.4
20260906041404 30 38 1.6 4.8 0.00 0.00 0.00 42 1013.3
20260906040903 31 34 0.0 4.8 0.00 0.00 0.00 41 1013.3
20260906040403 31 11 0.0 3.2 0.00 0.00 0.00 40 1013.2
20260906035903 31 38 1.6 3.2 0.00 0.00 0.00 39 1013.3
20260906035403 31 44 1.6 3.2 0.00 0.00 0.00 38 1013.2
20260906034903 31 41 1.6 3.2 0.00 0.00 0.00 38 1013.2
20260906034403 31 34 1.6 4.8 0.00 0.00 0.00 37 1013.2
20260906033903 31 21 1.6 4.8 0.00 0.00 0.00 38 1013.1
20260906033403 31 341 0.0 4.8 0.00 0.00 0.00 38 1013.1
20260906032904 32 0 1.6 4.8 0.00 0.00 0.00 37 1012.9
20260906032403 32 37 0.0 4.8 0.00 0.00 0.00 37 1012.9
20260906031904 32 31 1.6 3.2 0.00 0.00 0.00 37 1012.8
20260906031403 32 19 0.0 4.8 0.00 0.00 0.00 37 1012.7
20260906030903 32 35 0.0 4.8 0.00 0.00 0.00 37 1012.7
20260906025903 32 20 1.6 4.8 0.00 0.00 0.00 37 1012.6
20260906025403 32 21 1.6 4.8 0.00 0.00 0.00 37 1012.5
20260906024903 32 353 1.6 4.8 0.00 0.00 0.00 36 1012.4
20260906023904 32 355 3.2 9.7 0.00 0.00 0.00 36 1012.5
20260906023403 32 319 3.2 9.7 0.00 0.00 0.00 35 1012.4
20260906022903 33 352 3.2 12.9 0.00 0.00 0.00 35 1012.3
20260906022403 33 31 1.6 12.9 0.00 0.00 0.00 35 1012.2
20260906021903 33 0 3.2 8.0 0.00 0.00 0.00 35 1012.2
20260906021404 33 346 3.2 8.0 0.00 0.00 0.00 35 1012.2
20260906020903 33 328 1.6 4.8 0.00 0.00 0.00 34 1012.1
20260906020403 33 356 1.6 8.0 0.00 0.00 0.00 34 1012.1
20260906015903 33 354 1.6 9.7 0.00 0.00 0.00 33 1012.1
20260906015403 33 341 1.6 9.7 0.00 0.00 0.00 33 1012.1
20260906014903 33 324 3.2 9.7 0.00 0.00 0.00 33 1012.0
20260906014404 33 1 1.6 8.0 0.00 0.00 0.00 32 1012.1
20260906013903 33 357 1.6 9.7 0.00 0.00 0.00 32 1012.0
20260906013403 34 338 3.2 9.7 0.00 0.00 0.00 32 1012.0
20260906012903 34 327 3.2 9.7 0.00 0.00 0.00 32 1012.1
20260906012403 34 284 4.8 9.7 0.00 0.00 0.00 31 1012.0
20260906011904 35 284 1.6 8.0 0.00 0.00 0.00 31 1012.1
20260906011404 35 289 3.2 8.0 0.00 0.00 0.00 31 1012.0
20260906010903 35 235 3.2 14.5 0.00 0.00 0.00 31 1012.0
20260906005904 35 343 3.2 12.9 0.00 0.00 0.00 31 1012.1
20260906004904 35 227 3.2 9.7 0.00 0.00 0.00 31 1012.2
20260906004403 35 249 3.2 11.3 0.00 0.00 0.00 31 1012.2
20260906003903 35 183 3.2 11.3 0.00 0.00 0.00 30 1012.1
20260906003403 35 204 3.2 8.0 0.00 0.00 0.00 31 1012.2
20260906002904 35 215 3.2 9.7 0.00 0.00 0.00 31 1012.2
20260906002404 35 298 4.8 9.7 0.00 0.00 0.00 30 1012.0
20260906001904 35 323 3.2 14.5 0.00 0.00 0.00 31 1012.2
20260906001403 35 214 3.2 16.1 0.00 0.00 0.00 31 1012.2
20260906000903 36 248 4.8 16.1 0.00 0.00 0.00 31 1012.0
20260906000404 36 235 4.8 9.7 0.00 0.00 0.00 30 1012.2
20260905235903 36 230 3.2 11.3 0.00 0.00 0.00 30 1012.1
20260905234903 36 220 3.2 12.9 0.00 0.00 0.00 30 1012.1
20260905234403 36 232 4.8 12.9 0.00 0.00 0.00 30 1012.0
20260905233904 36 272 6.4 12.9 0.00 0.00 0.00 30 1012.1
20260905233404 36 185 4.8 12.9 0.00 0.00 0.00 30 1012.1
20260905232904 36 0 4.8 11.3 0.00 0.00 0.00 30 1012.1
20260905231904 37 243 3.2 16.1 0.00 0.00 0.00 29 1012.1
20260905231403 37 213 8.0 16.1 0.00 0.00 0.00 29 1012.1
20260905230903 37 226 3.2 16.1 0.00 0.00 0.00 29 1012.2
20260905225903 37 247 4.8 14.5 0.00 0.00 0.00 29 1012.2
20260905224403 37 174 4.8 12.9 0.00 0.00 0.00 29 1012.3
20260905223904 37 228 4.8 12.9 0.00 0.00 0.00 29 1012.4
20260905223405 37 136 3.2 11.3 0.00 0.00 0.00 29 1012.4
20260905222903 37 201 4.8 11.3 0.00 0.00 0.00 29 1012.4
20260905222403 37 322 3.2 12.9 0.00 0.00 0.00 29 1012.5
20260905221903 37 227 3.2 12.9 0.00 0.00 0.00 29 1012.6
20260905221404 37 225 4.8 16.1 0.00 0.00 0.00 28 1012.7
20260905220903 37 235 8.0 16.1 0.00 0.00 0.00 28 1012.7
20260905220403 37 219 3.2 11.3 0.00 0.00 0.00 28 1012.7
20260905215903 37 212 3.2 11.3 0.00 0.00 0.00 28 1012.9
20260905215404 37 53 3.2 11.3 0.00 0.00 0.00 27 1012.8
20260905214903 37 208 8.0 11.3 0.00 0.00 0.00 28 1013.0
20260905213903 37 221 4.8 12.9 0.00 0.00 0.00 28 1013.2
20260905213404 37 212 4.8 11.3 0.00 0.00 0.00 27 1013.1
20260905212903 37 303 3.2 12.9 0.00 0.00 0.00 28 1013.2
20260905212403 37 321 4.8 14.5 0.00 0.00 0.00 29 1013.2
20260905211903 37 225 4.8 14.5 0.00 0.00 0.00 29 1013.2
20260905211403 37 266 3.2 11.3 0.00 0.00 0.00 29 1013.2
20260905210903 37 248 4.8 11.3 0.00 0.00 0.00 29 1013.4
20260905210403 37 226 3.2 14.5 0.00 0.00 0.00 29 1013.5
20260905205903 37 219 3.2 14.5 0.00 0.00 0.00 28 1013.6
20260905205404 37 274 4.8 14.5 0.00 0.00 0.00 29 1013.6
20260905204904 37 246 3.2 11.3 0.00 0.00 0.00 30 1013.6
20260905203903 37 242 3.2 12.9 0.00 0.00 0.00 30 1013.9
20260905203404 36 233 3.2 12.9 0.00 0.00 0.00 31 1013.9
20260905202903 36 229 6.4 12.9 0.00 0.00 0.00 31 1014.1
20260905202403 36 234 4.8 12.9 0.00 0.00 0.00 31 1014.1
20260905201904 36 247 8.0 12.9 0.00 0.00 0.00 30 1014.2
20260905201403 36 231 4.8 11.3 0.00 0.00 0.00 30 1014.2
20260905200904 36 224 4.8 11.3 0.00 0.00 0.00 31 1014.3
20260905200403 36 210 4.8 11.3 0.00 0.00 0.00 31 1014.4
20260905195903 36 214 3.2 11.3 0.00 0.00 0.00 32 1014.4
20260905195403 36 220 4.8 11.3 0.00 0.00 0.00 31 1014.5
20260905194903 36 192 4.8 11.3 0.00 0.00 0.00 32 1014.6
20260905194403 36 239 3.2 12.9 0.00 0.00 0.00 32 1014.6
20260905193903 36 233 8.0 12.9 0.00 0.00 0.00 31 1014.6
20260905192403 36 224 4.8 14.5 0.00 0.00 0.00 32 1014.9
20260905191904 36 311 4.8 14.5 0.00 0.00 0.00 32 1015.0
20260905191403 36 241 6.4 11.3 0.00 0.00 0.00 32 1015.0
20260905190904 35 239 3.2 9.7 0.00 0.00 0.00 33 1015.2
20260905190404 35 236 3.2 9.7 0.00 0.00 0.00 33 1015.3
20260905185903 35 142 3.2 12.9 0.00 0.00 0.00 33 1015.2
20260905185403 35 225 4.8 12.9 0.00 0.00 0.00 33 1015.3
20260905184904 35 199 3.2 11.3 0.00 0.00 0.00 33 1015.3
20260905184403 35 221 4.8 11.3 0.00 0.00 0.00 33 1015.3
20260905183903 35 228 3.2 12.9 0.00 0.00 0.00 33 1015.4
20260905183403 35 57 4.8 12.9 0.00 0.00 0.00 34 1015.5
20260905182904 35 235 3.2 9.7 0.00 0.00 0.00 34 1015.5
20260905182404 35 269 3.2 12.9 0.00 0.00 0.00 34 1015.7
20260905181903 35 230 3.2 12.9 0.00 0.00 0.00 34 1015.6
20260905181403 35 204 3.2 9.7 0.00 0.00 0.00 35 1015.7
20260905180903 35 137 3.2 12.9 0.00 0.00 0.00 35 1015.7
20260905180404 34 217 4.8 12.9 0.00 0.00 0.00 35 1015.7
20260905175904 33 232 4.8 12.9 0.00 0.00 0.00 36 1015.7
20260905175404 33 228 3.2 9.7 0.00 0.00 0.00 36 1015.8
20260905174903 33 235 3.2 8.0 0.00 0.00 0.00 37 1015.8
20260905174403 33 201 1.6 8.0 0.00 0.00 0.00 37 1015.9
20260905173903 33 195 3.2 8.0 0.00 0.00 0.00 37 1015.9
20260905173404 33 227 4.8 8.0 0.00 0.00 0.00 37 1015.9
20260905172904 33 61 3.2 4.8 0.00 0.00 0.00 39 1015.9
20260905172403 32 205 1.6 4.8 0.00 0.00 0.00 40 1015.9
20260905171904 32 73 3.2 4.8 0.00 0.00 0.00 39 1015.9
20260905171403 33 218 1.6 4.8 0.00 0.00 0.00 40 1016.1
20260905170904 32 189 3.2 4.8 0.00 0.00 0.00 40 1016.0
20260905170403 32 234 1.6 4.8 0.00 0.00 0.00 43 1016.0
20260905165903 32 238 3.2 4.8 0.00 0.00 0.00 43 1016.1
20260905164903 31 132 0.0 4.8 0.00 0.00 0.00 45 1016.1
20260905164403 31 172 3.2 4.8 0.00 0.00 0.00 46 1016.2
20260905163903 31 215 1.6 4.8 0.00 0.00 0.00 46 1016.0
20260905163403 31 189 1.6 4.8 0.00 0.00 0.00 49 1016.0
20260905162903 31 95 3.2 4.8 0.00 0.00 0.00 49 1016.0
20260905162404 30 106 0.0 4.8 0.00 0.00 0.00 50 1016.1
20260905161904 30 94 1.6 4.8 0.00 0.00 0.00 49 1016.2
20260905161403 30 157 0.0 4.8 0.00 0.00 0.00 51 1016.0
20260905160403 30 87 1.6 4.8 0.00 0.00 0.00 52 1016.1
20260905155903 30 88 1.6 4.8 0.00 0.00 0.00 53 1016.1
20260905155404 29 158 1.6 4.8 0.00 0.00 0.00 53 1016.1
20260905154903 29 169 1.6 4.8 0.00 0.00 0.00 53 1016.1
20260905154403 29 96 1.6 4.8 0.00 0.00 0.00 55 1016.0
20260905153903 28 180 1.6 4.8 0.00 0.00 0.00 54 1016.1
20260905153403 28 128 0.0 4.8 0.00 0.00 0.00 56 1016.1
20260905152903 28 120 1.6 4.8 0.00 0.00 0.00 56 1016.1
20260905151903 28 189 1.6 4.8 0.00 0.00 0.00 57 1016.1
20260905151404 28 211 1.6 8.0 0.00 0.00 0.00 57 1016.0
20260905150903 27 129 1.6 8.0 0.00 0.00 0.00 58 1016.0
20260905145903 27 134 1.6 4.8 0.00 0.00 0.00 60 1015.9
20260905145404 27 150 1.6 4.8 0.00 0.00 0.00 60 1016.0
20260905144903 27 165 1.6 4.8 0.00 0.00 0.00 60 1015.9
20260905144404 27 154 1.6 4.8 0.00 0.00 0.00 61 1016.0
20260905143903 26 91 1.6 4.8 0.00 0.00 0.00 62 1016.1
20260905142904 26 105 1.6 4.8 0.00 0.00 0.00 63 1016.0
20260905142403 26 96 1.6 4.8 0.00 0.00 0.00 63 1015.9
20260905141903 26 83 1.6 4.8 0.00 0.00 0.00 64 1015.7
20260905141403 26 100 3.2 4.8 0.00 0.00 0.00 64 1015.6
20260905140403 25 88 1.6 4.8 0.00 0.00 0.00 66 1015.5
20260905135904 25 109 1.6 4.8 0.00 0.00 0.00 67 1015.4
20260905135404 25 125 0.0 3.2 0.00 0.00 0.00 68 1015.4
20260905134903 24 82 0.0 1.6 0.00 0.00 0.00 69 1015.4
20260905134403 23 82 0.0 1.6 0.00 0.00 0.00 70 1015.3
20260905133904 23 82 0.0 1.6 0.00 0.00 0.00 70 1015.2
20260905133404 23 76 0.0 4.8 0.00 0.00 0.00 70 1015.0
20260905131903 23 87 0.0 1.6 0.00 0.00 0.00 71 1014.7
20260905131404 23 92 0.0 1.6 0.00 0.00 0.00 71 1014.7
20260905130903 23 92 0.0 1.6 0.00 0.00 0.00 71 1014.6
20260905130403 23 92 0.0 0.0 0.00 0.00 0.00 71 1014.6
20260905124903 23 92 0.0 1.6 0.00 0.00 0.00 70 1014.7
20260905124403 23 92 0.0 0.0 0.00 0.00 0.00 69 1014.7
20260905123903 23 92 0.0 1.6 0.00 0.00 0.00 69 1014.6
20260905123403 23 92 0.0 1.6 0.00 0.00 0.00 69 1014.6
20260905122904 23 92 0.0 1.6 0.00 0.00 0.00 69 1014.6
20260905122404 23 92 0.0 3.2 0.00 0.00 0.00 69 1014.4
20260905121904 23 92 0.0 3.2 0.00 0.00 0.00 69 1014.4
20260905121403 23 93 0.0 3.2 0.00 0.00 0.00 69 1014.4
20260905120903 23 77 0.0 3.2 0.00 0.00 0.00 69 1014.4
20260905120404 23 63 0.0 1.6 0.00 0.00 0.00 69 1014.3
20260905115904 23 63 0.0 1.6 0.00 0.00 0.00 69 1014.3
20260905115404 24 63 0.0 1.6 0.00 0.00 0.00 69 1014.3
20260905114904 24 63 0.0 1.6 0.00 0.00 0.00 69 1014.3
20260905114403 24 63 0.0 1.6 0.00 0.00 0.00 68 1014.4
20260905113903 24 63 0.0 1.6 0.00 0.00 0.00 68 1014.5
20260905112903 24 63 0.0 1.6 0.00 0.00 0.00 69 1014.4
20260905112403 24 63 0.0 0.0 0.00 0.00 0.00 69 1014.4
20260905111903 24 63 0.0 0.0 0.00 0.00 0.00 69 1014.4
20260905111404 24 63 0.0 0.0 0.00 0.00 0.00 68 1014.4
20260905110904 24 63 0.0 0.0 0.00 0.00 0.00 68 1014.3
20260905110403 25 63 0.0 0.0 0.00 0.00 0.00 67 1014.3
20260905105903 25 63 0.0 0.0 0.00 0.00 0.00 67 1014.3
20260905104404 25 63 0.0 1.6 0.00 0.00 0.00 66 1014.3
20260905103903 25 63 0.0 1.6 0.00 0.00 0.00 66 1014.2
20260905103403 25 63 0.0 1.6 0.00 0.00 0.00 67 1014.3
20260905102904 25 63 0.0 3.2 0.00 0.00 0.00 66 1014.3
20260905102403 25 63 0.0 3.2 0.00 0.00 0.00 66 1014.3
20260905101903 25 78 0.0 3.2 0.00 0.00 0.00 66 1014.3
20260905101404 25 88 0.0 3.2 0.00 0.00 0.00 66 1014.3
20260905100904 25 86 0.0 3.2 0.00 0.00 0.00 66 1014.3
20260905100403 25 87 1.6 3.2 0.00 0.00 0.00 66 1014.3
20260905095403 25 76 0.0 1.6 0.00 0.00 0.00 66 1014.3
20260905094903 25 76 0.0 1.6 0.00 0.00 0.00 65 1014.3
20260905094403 25 76 0.0 3.2 0.00 0.00 0.00 67 1014.3
20260905093903 25 76 0.0 3.2 0.00 0.00 0.00 66 1014.3
20260905093404 25 85 0.0 3.2 0.00 0.00 0.00 65 1014.3
20260905092904 25 62 0.0 1.6 0.00 0.00 0.00 65 1014.3
20260905092404 25 62 0.0 1.6 0.00 0.00 0.00 66 1014.3
20260905091904 25 62 0.0 1.6 0.00 0.00 0.00 66 1014.4
20260905091403 25 62 0.0 1.6 0.00 0.00 0.00 65 1014.3
20260905090904 25 62 0.0 1.6 0.00 0.00 0.00 65 1014.4
20260905090404 25 62 0.0 1.6 0.00 0.00 0.00 64 1014.4
20260905085404 26 62 0.0 1.6 0.00 0.00 0.00 64 1014.4
20260905084903 26 62 0.0 1.6 0.00 0.00 0.00 65 1014.3
20260905084404 26 62 0.0 1.6 0.00 0.00 0.00 63 1014.3
20260905083903 26 62 0.0 1.6 0.00 0.00 0.00 63 1014.4